Вернуться в каталог

STARLINK-37465

АктивенСвязьSSO
NORAD 68847·PAYLOAD·🇺🇸 United States

Запущен Apr 26, 2026 с Vandenberg Space Force Base

Loading…

Ближайшие Пролёты (ближайшие 24 часа)

TLE

СвежийSource: CelesTrak SupGP

Эпоха: Sep 14, 2026, 22:26 UTC

1 68847C 26094J   26257.93520833  .00046825  00000+0  14537-2 0  2572
2 68847  97.2830 271.1158 0001525  87.5256 261.7123 15.33412110    19

Отслеживайте STARLINK-37465 в реальном времени с AllMySat

Download on the App Store